"Pseudo-MPEC" for P11dgtF

Created 2021 Mar 3 21:07:10 UT using Find_Orb

Click here for an explanation of pseudo-MPECs

 
 Astrometry: 
     P11dgtF  C2020 12 23x:pVtLrTA4Dn+N)QeT`?*,3,E7=E51oF`A2O]AstrometryGl\;QF51
     P11dgtF  C2020 12 23dx(f6L]@2K1bxVQcKQIGm\vQ]B3RMwP/cnEi,@UWgsxredacted;F51
     P11dgtF  C2020 12 23C$bIVepI!l8igjclickduL'CKpOk`lm3Dj8`9nL/q'Vr@Ehere_dF51
     P11dgtF  C2021 02 12;$_g+]mV2^6MP)`usforR53avriRDcQ)Mmag4GJ'W6@mcJv$yI05F51
     P11dgtF  C2021 02 1261v3]??'\qddLQ,sUhPk.C/XsgXBQmYCFy=ey6k=Tqnaj#)tI7q2F51
     P11dgtF  C2021 02 12IjS'f*explanationNEGLEFi1'BGr:Vibq3fa57X!`TBh^Jh_v3`F51
     P11dgtF  C2021 02 16?DgF_V(Mo*MVs4t$6($gKl!ZfA$S7$lmt1SipZyCx3rW#W\A\NH^F51
     P11dgtF  C2021 02 16.hYgBJk4=Lc(Y,R:,vlsnIwH[Yjqal/JZhk86k/b.8v:Dj@\th`KF51
     P11dgtF  C2021 02 167A^[8y'H#ajn]+cFGq^Ce]gf#J:F0?7+WrwVyEZ:j(2'3uM5Ff22F51

Station data:
(F51) Pan-STARRS 1, Haleakala  (N20.707235 W156.255910)  US/Hawaii.
   Observers N. Primak, A. Schultz, S. Watters, J. Thiel, T. Goggia. Measurer
   PS1 Science Consortium. 1.8-m Ritchey-Chrétien + CCD.

Orbital elements:  P11dgtF
   Perihelion 2020 Apr 6.314080 +/- 0.184457 TT =  7:32:16 (JD 2458945.814080)
Epoch 2021 Feb 16.0 TT = JDT 2459261.5   Earth MOID: 0.7807   AutoNEOCP
M 124.86840835 +/- 0.0940419        (J2000 ecliptic)
n   0.39554633 +/- 9.62214e-5       Peri.  267.90751 +/- 0.0727597
a   1.83796741 +/- 0.00029806       Node    98.65429 +/- 0.0075495
e   0.0784118 +/- 9.66863e-5        Incl.   23.89195 +/- 0.0075966
P   2.49/910.12d           H 20.0   G  0.15   U  6.5  
q 1.69384899 +/- 0.00016012    Q 1.98208582 +/- 0.000479933
From 9 observations 2020 Dec. 23-2021 Feb. 16; mean residual 0".10
Residuals in arcseconds: 
201223 F51  .10-  .11+    210212 F51  .00   .13-    210216 F51  .14-  .07+    
201223 F51  .19+  .10-    210212 F51  .00   .03-    210216 F51  .11+  .03+    
201223 F51  .09-  .01-    210212 F51  .00   .17+    210216 F51  .03+  .11-    

Ephemerides (geocentric):
Date (UTC) HH   RA              Dec         delta   r     elong  mag " sig PA
---- -- -- --  -------------   -----------  ------ ------ -----  --- ---- ---
2021 03 03 21  08 44 40.434   +48 19 29.79  1.1499 1.9387 129.6 22.8 1.77  25
2021 03 03 22  08 44 38.715   +48 19 32.64  1.1502 1.9388 129.6 22.8 1.77  25
2021 03 03 23  08 44 37.002   +48 19 35.44  1.1505 1.9388 129.5 22.8 1.78  25
2021 03 04 00  08 44 35.293   +48 19 38.19  1.1509 1.9388 129.5 22.8 1.78  25
2021 03 04 01  08 44 33.590   +48 19 40.90  1.1512 1.9388 129.5 22.8 1.79  25
2021 03 04 02  08 44 31.892   +48 19 43.56  1.1515 1.9389 129.4 22.8 1.79  25
2021 03 04 03  08 44 30.200   +48 19 46.17  1.1519 1.9389 129.4 22.8 1.80  25
2021 03 04 04  08 44 28.513   +48 19 48.74  1.1522 1.9389 129.3 22.8 1.80  25
2021 03 04 05  08 44 26.831   +48 19 51.26  1.1525 1.9390 129.3 22.9 1.81  25
2021 03 04 06  08 44 25.155   +48 19 53.73  1.1529 1.9390 129.3 22.9 1.81  25
2021 03 04 07  08 44 23.484   +48 19 56.16  1.1532 1.9390 129.2 22.9 1.82  25
2021 03 04 08  08 44 21.819   +48 19 58.54  1.1535 1.9390 129.2 22.9 1.82  24
2021 03 04 09  08 44 20.159   +48 20 00.87  1.1539 1.9391 129.2 22.9 1.83  24
2021 03 04 10  08 44 18.504   +48 20 03.15  1.1542 1.9391 129.1 22.9 1.83  24
2021 03 04 11  08 44 16.854   +48 20 05.39  1.1545 1.9391 129.1 22.9 1.84  24
2021 03 04 12  08 44 15.210   +48 20 07.58  1.1549 1.9391 129.1 22.9 1.84  24
2021 03 04 13  08 44 13.571   +48 20 09.73  1.1552 1.9392 129.0 22.9 1.85  24
2021 03 04 14  08 44 11.938   +48 20 11.83  1.1556 1.9392 129.0 22.9 1.85  24
2021 03 04 15  08 44 10.310   +48 20 13.88  1.1559 1.9392 128.9 22.9 1.86  24
2021 03 04 16  08 44 08.688   +48 20 15.89  1.1562 1.9393 128.9 22.9 1.86  24
2021 03 04 17  08 44 07.070   +48 20 17.85  1.1566 1.9393 128.9 22.9 1.87  24
2021 03 04 18  08 44 05.459   +48 20 19.77  1.1569 1.9393 128.8 22.9 1.87  24
2021 03 04 19  08 44 03.852   +48 20 21.63  1.1572 1.9393 128.8 22.9 1.88  24
2021 03 04 20  08 44 02.251   +48 20 23.46  1.1576 1.9394 128.8 22.9 1.88  24
2021 03 04 21  08 44 00.655   +48 20 25.23  1.1579 1.9394 128.7 22.9 1.89  23
2021 03 04 22  08 43 59.065   +48 20 26.96  1.1583 1.9394 128.7 22.9 1.89  23
2021 03 04 23  08 43 57.480   +48 20 28.65  1.1586 1.9395 128.7 22.9 1.90  23
2021 03 05 00  08 43 55.901   +48 20 30.29  1.1589 1.9395 128.6 22.9 1.90  23
2021 03 05 01  08 43 54.327   +48 20 31.88  1.1593 1.9395 128.6 22.9 1.91  23
2021 03 05 02  08 43 52.758   +48 20 33.43  1.1596 1.9395 128.6 22.9 1.91  23
2021 03 05 03  08 43 51.195   +48 20 34.93  1.1599 1.9396 128.5 22.9 1.92  23
2021 03 05 04  08 43 49.637   +48 20 36.39  1.1603 1.9396 128.5 22.9 1.92  23
2021 03 05 05  08 43 48.085   +48 20 37.80  1.1606 1.9396 128.4 22.9 1.93  23
2021 03 05 06  08 43 46.538   +48 20 39.16  1.1610 1.9396 128.4 22.9 1.93  23
2021 03 05 07  08 43 44.996   +48 20 40.48  1.1613 1.9397 128.4 22.9 1.93  23
2021 03 05 08  08 43 43.460   +48 20 41.75  1.1616 1.9397 128.3 22.9 1.94  23
2021 03 05 09  08 43 41.929   +48 20 42.98  1.1620 1.9397 128.3 22.9 1.94  23
2021 03 05 10  08 43 40.404   +48 20 44.17  1.1623 1.9398 128.3 22.9 1.95  22
2021 03 05 11  08 43 38.884   +48 20 45.30  1.1627 1.9398 128.2 22.9 1.95  22
2021 03 05 12  08 43 37.370   +48 20 46.40  1.1630 1.9398 128.2 22.9 1.96  22
2021 03 05 13  08 43 35.861   +48 20 47.44  1.1634 1.9398 128.2 22.9 1.96  22
2021 03 05 14  08 43 34.357   +48 20 48.45  1.1637 1.9399 128.1 22.9 1.97  22
2021 03 05 15  08 43 32.859   +48 20 49.41  1.1640 1.9399 128.1 22.9 1.97  22
2021 03 05 16  08 43 31.366   +48 20 50.32  1.1644 1.9399 128.0 22.9 1.98  22
2021 03 05 17  08 43 29.879   +48 20 51.19  1.1647 1.9400 128.0 22.9 1.98  22
2021 03 05 18  08 43 28.397   +48 20 52.01  1.1651 1.9400 128.0 22.9 1.99  22
2021 03 05 19  08 43 26.921   +48 20 52.79  1.1654 1.9400 127.9 22.9 1.99  22
2021 03 05 20  08 43 25.450   +48 20 53.52  1.1657 1.9400 127.9 22.9 2.00  22